Glenwood, MN

11:59 PM CST on February 20, 2017 (GMT -0600)
Glenwood Municipal

Weather History for KGHW - December, 2013

Change the Weather History Date:

Monday, December 9, 2013

  Actual Average Record
Temperature  
Mean Temperature -3 °F -  
Max Temperature 3 °F 27 °F 55 °F (2006)
Min Temperature -9 °F 10 °F -19 °F (1955)
Degree Days  
Heating Degree Days 68    
Moisture  
Dew Point -9 °F    
Average Humidity 80    
Maximum Humidity 92    
Minimum Humidity 66    
Precipitation  
Precipitation 0.00 in - - ()
Sea Level Pressure  
Sea Level Pressure 29.94 in    
Wind  
Wind Speed 13 mph (WSW)    
Max Wind Speed 23 mph    
Max Gust Speed 32 mph    
Visibility 8 miles    
Events Snow    
Averages and records for this station are not official NWS values.
T = Trace of Precipitation, MM = Missing Value Source: NWS Daily Summary

Daily Weather History Graph

Daily Weather History Graph

Search for Another Location

Airport or City:

Trip Planner

Search our weather history database for the weather conditions in past years. The results will help you decide how hot, cold, wet, or windy it might be!

Date:

Astronomy

Dec. 09, 2013 Rise Set
Actual Time 7:50 AM CST 4:37 PM CST
Civil Twilight 7:16 AM CST 5:11 PM CST
Nautical Twilight 6:38 AM CST 5:48 PM CST
Astronomical Twilight 6:02 AM CST 6:24 PM CST
Moon 12:25 PM CST (12/9) No Moon Set
Length of Visible Light 9h 55m
Length of Day
8h 47m
Waxing Crescent, 51% of the Moon is Illuminated
Dec 9
Waxing Crescent
Dec 17
Full
Dec 25
Last Quarter
Jan 1
New
Jan 7
First Quarter

Hourly Weather History & Observations

Time (CST) Temp. Windchill Dew Point Humidity Pressure Visibility Wind Dir Wind Speed Gust Speed Precip Events Conditions
12:13 AM 1.4 °F -13.5 °F -2.2 °F 85% 29.98 in 7.0 mi WSW 9.2 mph - N/A   Overcast
12:33 AM -0.4 °F -15.7 °F -2.2 °F 92% 29.97 in 10.0 mi WSW 9.2 mph - N/A   Scattered Clouds
12:53 AM 1.4 °F -15.3 °F -2.2 °F 85% 29.96 in 7.0 mi West 11.5 mph - N/A   Scattered Clouds
1:13 AM -0.4 °F -19.2 °F -2.2 °F 92% 29.96 in 10.0 mi West 13.8 mph - N/A   Scattered Clouds
1:33 AM -0.4 °F -16.7 °F -4.0 °F 85% 29.96 in 7.0 mi West 10.4 mph - N/A   Scattered Clouds
1:53 AM -2.2 °F -18.0 °F -5.8 °F 85% 29.97 in 7.0 mi West 9.2 mph - N/A   Overcast
2:13 AM -2.2 °F -16.8 °F -7.6 °F 78% 29.97 in 10.0 mi West 8.1 mph - N/A   Scattered Clouds
2:34 AM -4.0 °F -19.0 °F -7.6 °F 85% 29.97 in 10.0 mi West 8.1 mph - N/A   Clear
2:53 AM -4.0 °F -22.1 °F -7.6 °F 85% 29.97 in 10.0 mi West 11.5 mph 16.1 mph N/A   Clear
3:13 AM -5.8 °F -25.2 °F -9.4 °F 84% 29.97 in 10.0 mi West 12.7 mph - N/A   Clear
3:34 AM -5.8 °F -25.2 °F -9.4 °F 84% 29.96 in 10.0 mi West 12.7 mph - N/A   Clear
3:53 AM -7.6 °F -24.6 °F -9.4 °F 92% 29.96 in 10.0 mi West 9.2 mph - N/A   Clear
4:13 AM -7.6 °F -27.5 °F -11.2 °F 84% 29.95 in 10.0 mi West 12.7 mph - N/A   Clear
4:34 AM -7.6 °F -27.5 °F -11.2 °F 84% 29.95 in 10.0 mi West 12.7 mph - N/A   Clear
4:53 AM -9.4 °F -32.1 °F -13.0 °F 84% 29.96 in 10.0 mi West 16.1 mph - N/A   Clear
5:13 AM -9.4 °F -29.8 °F -14.8 °F 77% 29.96 in 10.0 mi West 12.7 mph 17.3 mph N/A   Clear
5:33 AM -9.4 °F -28.9 °F -14.8 °F 77% 29.96 in 10.0 mi West 11.5 mph - N/A   Clear
5:53 AM -9.4 °F -30.6 °F -14.8 °F 77% 29.97 in 10.0 mi West 13.8 mph - N/A   Clear
6:14 AM -9.4 °F -32.1 °F -14.8 °F 77% 29.96 in 10.0 mi West 16.1 mph 19.6 mph N/A   Scattered Clouds
6:33 AM -9.4 °F -32.1 °F -14.8 °F 77% 29.97 in 10.0 mi West 16.1 mph - N/A   Clear
6:53 AM -9.4 °F -32.8 °F -14.8 °F 77% 29.98 in 10.0 mi West 17.3 mph 20.7 mph N/A   Clear
7:14 AM -9.4 °F -33.5 °F -14.8 °F 77% 29.98 in 10.0 mi West 18.4 mph 25.3 mph N/A   Scattered Clouds
7:33 AM -9.4 °F -33.5 °F -14.8 °F 77% 29.99 in 7.0 mi West 18.4 mph - N/A   Overcast
7:53 AM -9.4 °F -33.5 °F -14.8 °F 77% 30.00 in 7.0 mi West 18.4 mph 24.2 mph N/A   Overcast
8:13 AM -9.4 °F -32.8 °F -14.8 °F 77% 30.01 in 7.0 mi West 17.3 mph - N/A   Overcast
8:33 AM -9.4 °F -32.8 °F -14.8 °F 77% 30.01 in 5.0 mi West 17.3 mph 23.0 mph N/A   Haze
8:53 AM -9.4 °F -33.5 °F -13.0 °F 84% 30.02 in 5.0 mi West 18.4 mph 25.3 mph N/A   Overcast
9:13 AM -9.4 °F -34.1 °F -13.0 °F 84% 30.02 in 5.0 mi West 19.6 mph - N/A   Overcast
9:34 AM -7.6 °F -32.3 °F -13.0 °F 77% 30.02 in 4.0 mi West 20.7 mph 26.5 mph N/A Snow Light Snow
9:53 AM -7.6 °F -31.7 °F -11.2 °F 84% 30.03 in 5.0 mi West 19.6 mph 23.0 mph N/A   Scattered Clouds
10:13 AM -7.6 °F -32.3 °F -11.2 °F 84% 30.04 in 7.0 mi West 20.7 mph 26.5 mph N/A   Scattered Clouds
10:34 AM -7.6 °F -31.7 °F -11.2 °F 84% 30.04 in 7.0 mi West 19.6 mph 24.2 mph N/A   Scattered Clouds
10:53 AM -7.6 °F -32.9 °F -11.2 °F 84% 30.05 in 10.0 mi West 21.9 mph - N/A   Scattered Clouds
11:13 AM -5.8 °F -29.9 °F -11.2 °F 77% 30.04 in 10.0 mi West 20.7 mph - N/A   Clear
11:34 AM -5.8 °F -30.5 °F -11.2 °F 77% 30.04 in 5.0 mi West 21.9 mph 32.2 mph N/A   Haze
11:53 AM -5.8 °F -31.0 °F -11.2 °F 77% 30.03 in 7.0 mi WNW 23.0 mph 29.9 mph N/A   Scattered Clouds
12:13 PM -4.0 °F -26.4 °F -11.2 °F 71% 30.02 in 7.0 mi West 18.4 mph - N/A   Clear
12:34 PM -4.0 °F -26.4 °F -11.2 °F 71% 30.02 in 10.0 mi West 18.4 mph 23.0 mph N/A   Clear
12:53 PM -4.0 °F -24.5 °F -11.2 °F 71% 30.02 in 10.0 mi West 15.0 mph 26.5 mph N/A   Clear
1:13 PM -2.2 °F -24.1 °F -11.2 °F 66% 30.01 in 10.0 mi West 18.4 mph - N/A   Clear
1:34 PM -2.2 °F -22.9 °F -11.2 °F 66% 30.00 in 10.0 mi West 16.1 mph - N/A   Clear
1:53 PM -2.2 °F -24.7 °F -11.2 °F 66% 29.99 in 10.0 mi West 19.6 mph - N/A   Clear
2:13 PM -2.2 °F -22.2 °F -9.4 °F 71% 29.98 in 10.0 mi West 15.0 mph - N/A   Clear
2:33 PM -2.2 °F -22.2 °F -9.4 °F 71% 29.97 in 10.0 mi WSW 15.0 mph - N/A   Clear
2:53 PM -2.2 °F -22.2 °F -9.4 °F 71% 29.98 in 10.0 mi WSW 15.0 mph - N/A   Clear
3:14 PM -2.2 °F -21.5 °F -9.4 °F 71% 29.98 in 10.0 mi WSW 13.8 mph - N/A   Clear
3:33 PM -2.2 °F -21.5 °F -9.4 °F 71% 29.98 in 10.0 mi WSW 13.8 mph - N/A   Clear
3:53 PM -2.2 °F -21.5 °F -9.4 °F 71% 29.98 in 10.0 mi WSW 13.8 mph - N/A   Clear
4:14 PM -4.0 °F -19.0 °F -9.4 °F 78% 29.98 in 10.0 mi SW 8.1 mph - N/A   Clear
4:33 PM -7.6 °F -20.6 °F -11.2 °F 84% 29.96 in 10.0 mi SSW 5.8 mph - N/A   Clear
4:53 PM -9.4 °F -24.3 °F -14.8 °F 77% 29.96 in 10.0 mi SSW 6.9 mph - N/A   Clear
5:14 PM -7.6 °F -20.6 °F -13.0 °F 77% 29.95 in 10.0 mi South 5.8 mph - N/A   Clear
5:33 PM -7.6 °F -22.1 °F -11.2 °F 84% 29.95 in 10.0 mi South 6.9 mph - N/A   Clear
5:53 PM -5.8 °F -22.4 °F -9.4 °F 84% 29.94 in 10.0 mi South 9.2 mph - N/A   Clear
6:14 PM -4.0 °F -23.0 °F -9.4 °F 78% 29.92 in 10.0 mi South 12.7 mph - N/A   Clear
6:33 PM -4.0 °F -23.0 °F -9.4 °F 78% 29.91 in 10.0 mi South 12.7 mph - N/A   Clear
6:53 PM -4.0 °F -22.1 °F -9.4 °F 78% 29.90 in 10.0 mi South 11.5 mph - N/A   Clear
7:13 PM -5.8 °F -24.4 °F -9.4 °F 84% 29.89 in 10.0 mi South 11.5 mph - N/A   Clear
7:33 PM -4.0 °F -23.7 °F -7.6 °F 85% 29.88 in 10.0 mi South 13.8 mph - N/A   Clear
7:53 PM -2.2 °F -23.5 °F -7.6 °F 78% 29.87 in 10.0 mi South 17.3 mph - N/A   Scattered Clouds
8:13 PM -2.2 °F -22.9 °F -7.6 °F 78% 29.87 in 10.0 mi South 16.1 mph - N/A   Overcast
8:33 PM -2.2 °F -19.9 °F -7.6 °F 78% 29.85 in 10.0 mi South 11.5 mph - N/A   Overcast
8:53 PM -0.4 °F -19.2 °F -5.8 °F 78% 29.82 in 4.0 mi SSE 13.8 mph - N/A   Haze
9:13 PM -0.4 °F -19.2 °F -5.8 °F 78% 29.79 in 2.5 mi SSE 13.8 mph - N/A Snow Light Snow
9:33 PM 1.4 °F -19.4 °F -4.0 °F 78% 29.78 in 3.0 mi South 18.4 mph 24.2 mph N/A Snow Light Snow
9:54 PM 1.4 °F -18.2 °F -2.2 °F 85% 29.76 in 2.0 mi SSE 16.1 mph - N/A Snow Light Snow
10:13 PM 1.4 °F -15.3 °F -2.2 °F 85% 29.75 in 0.8 mi SSE 11.5 mph - N/A Snow Snow
10:33 PM 1.4 °F -15.3 °F -2.2 °F 85% 29.74 in 1.8 mi South 11.5 mph - N/A Snow Light Snow
10:53 PM 1.4 °F -16.1 °F -0.4 °F 92% 29.73 in 1.5 mi South 12.7 mph - N/A Snow Light Snow
11:13 PM 3.2 °F -13.9 °F -0.4 °F 85% 29.72 in 2.0 mi South 12.7 mph - N/A Snow Light Snow
11:33 PM 3.2 °F -15.3 °F 1.4 °F 92% 29.71 in 2.0 mi South 15.0 mph - N/A Snow Light Snow
11:53 PM 3.2 °F -13.9 °F 1.4 °F 92% 29.70 in 2.5 mi South 12.7 mph - N/A Snow Light Snow